Plattsburgh, NY

2:00 PM EDT on May 22, 2017 (GMT -0400)
Plattsburgh International

Weather History for KPBG - November, 2012

Change the Weather History Date:

Wednesday, November 28, 2012

  Actual Average Record
Temperature  
Mean Temperature 31 °F 32 °F  
Max Temperature 38 °F 40 °F 69 °F (1990)
Min Temperature 24 °F 23 °F 0 °F (1949)
Degree Days  
Heating Degree Days 34 33  
Month to date heating degree days 820 782  
Since 1 July heating degree days 1478 1565  
Cooling Degree Days 0 0  
Month to date cooling degree days 0  
Year to date cooling degree days 346  
Moisture  
Dew Point 25 °F    
Average Humidity 72    
Maximum Humidity 92    
Minimum Humidity 52    
Precipitation  
Precipitation T in - 1.17 in (1959)
Month to date precipitation 0.41  
Year to date precipitation 24.52  
Sea Level Pressure  
Sea Level Pressure 30.15 in    
Wind  
Wind Speed 2 mph (SW)    
Max Wind Speed 13 mph    
Max Gust Speed 18 mph    
Visibility 9 miles    
Events Snow    
T = Trace of Precipitation, MM = Missing Value Source: NWS Daily Summary

Daily Weather History Graph

Daily Weather History Graph

Search for Another Location

Airport or City:

Trip Planner

Search our weather history database for the weather conditions in past years. The results will help you decide how hot, cold, wet, or windy it might be!

Date:

Astronomy

Nov. 28, 2012 Rise Set
Actual Time 7:07 AM EST 4:16 PM EST
Civil Twilight 6:35 AM EST 4:48 PM EST
Nautical Twilight 5:58 AM EST 5:24 PM EST
Astronomical Twilight 5:23 AM EST 5:59 PM EST
Moon 4:28 PM EST (11/28) 7:03 AM EST (11/28)
Length of Visible Light 10h 13m
Length of Day
9h 08m
Full, 100% of the Moon is Illuminated
Nov 28
Full
Dec 6
Last Quarter
Dec 13
New
Dec 20
First Quarter
Dec 28
Full

Hourly Weather History & Observations

Time (EST) Temp. Windchill Dew Point Humidity Pressure Visibility Wind Dir Wind Speed Gust Speed Precip Events Conditions
12:53 AM 25.0 °F - 21.9 °F 88% 30.25 in 10.0 mi Calm Calm - N/A   Overcast
1:53 AM 25.0 °F - 21.9 °F 88% 30.24 in 10.0 mi Calm Calm - N/A   Overcast
2:53 AM 26.1 °F - 23.0 °F 88% 30.24 in 10.0 mi Calm Calm - N/A   Overcast
3:53 AM 26.1 °F - 23.0 °F 88% 30.23 in 10.0 mi Calm Calm - N/A   Overcast
4:53 AM 26.1 °F - 23.0 °F 88% 30.24 in 10.0 mi Calm Calm - N/A   Overcast
5:53 AM 26.1 °F - 23.0 °F 88% 30.23 in 10.0 mi Calm Calm - N/A   Overcast
6:53 AM 27.0 °F - 23.0 °F 85% 30.22 in 10.0 mi Calm Calm - N/A   Overcast
7:53 AM 27.0 °F 21.6 °F 24.1 °F 89% 30.21 in 10.0 mi East 4.6 mph - N/A   Overcast
8:53 AM 30.0 °F - 26.1 °F 85% 30.20 in 10.0 mi Calm Calm - N/A   Overcast
9:53 AM 35.1 °F - 28.0 °F 76% 30.19 in 10.0 mi Calm Calm - N/A   Partly Cloudy
10:23 AM 35.6 °F - 28.4 °F 75% 30.17 in 10.0 mi Calm Calm - N/A   Mostly Cloudy
10:38 AM 35.6 °F - 28.4 °F 75% 30.16 in 10.0 mi Calm Calm - N/A   Scattered Clouds
10:53 AM 37.0 °F 33.3 °F 26.1 °F 65% 30.17 in 10.0 mi South 4.6 mph - N/A   Partly Cloudy
11:53 AM 37.0 °F 31.6 °F 23.0 °F 57% 30.14 in 10.0 mi SW 6.9 mph - N/A   Overcast
12:53 PM 37.0 °F 33.3 °F 21.9 °F 54% 30.12 in 10.0 mi SSW 4.6 mph - N/A   Overcast
1:53 PM 36.0 °F 32.1 °F 25.0 °F 64% 30.10 in 10.0 mi SSW 4.6 mph - N/A   Overcast
2:53 PM 36.0 °F 30.3 °F 26.1 °F 67% 30.09 in 10.0 mi SSW 6.9 mph - 0.00 in Snow Light Snow
3:53 PM 34.0 °F - 27.0 °F 75% 30.09 in 10.0 mi Calm Calm - 0.00 in   Overcast
4:53 PM 33.1 °F - 28.0 °F 82% 30.09 in 10.0 mi Calm Calm - N/A   Overcast
5:53 PM 32.0 °F - 27.0 °F 82% 30.09 in 10.0 mi Calm Calm - N/A   Overcast
6:53 PM 32.0 °F - 25.0 °F 75% 30.09 in 10.0 mi Calm Calm - N/A   Mostly Cloudy
7:53 PM 35.1 °F 31.0 °F 25.0 °F 67% 30.10 in 10.0 mi SSW 4.6 mph - N/A   Overcast
8:53 PM 35.1 °F 32.2 °F 26.1 °F 70% 30.09 in 10.0 mi SW 3.5 mph - N/A   Overcast
9:25 PM 33.8 °F - 26.6 °F 75% 30.09 in 7.0 mi Calm Calm - 0.00 in Snow Light Snow
9:53 PM 33.1 °F - 27.0 °F 78% 30.10 in 9.0 mi Calm Calm - 0.00 in   Overcast
10:25 PM 32.0 °F 24.8 °F 28.4 °F 87% 30.11 in 1.8 mi NW 8.1 mph 18.4 mph 0.00 in Snow Light Snow
10:30 PM 32.0 °F 26.4 °F 28.4 °F 87% 30.11 in 3.0 mi NW 5.8 mph - 0.00 in Snow Light Snow
10:53 PM 32.0 °F 24.8 °F 25.0 °F 75% 30.13 in 10.0 mi NW 8.1 mph - 0.00 in   Mostly Cloudy
11:53 PM 30.0 °F - 21.0 °F 69% 30.14 in 10.0 mi Calm Calm - N/A   Mostly Cloudy